sat.trackr.live / text

‹ back to catalog

STARLINK-2558

NORAD 48282 · 2021-036G

PAYLOAD ACTIVE UNKNOWN

§ Identity

Operator
Country
US
Launch date
2021-04-29
Launch site
AFETR
Launch vehicle
Mass (kg)
RCS (m²)

Purposes: comms

External: N2YO · Heavens-Above · Gunter

§ Orbital elements

Epoch: 2026-05-25T05:00:55.178208Z

Period
94.01 min
Inclination
53.1600°
Eccentricity
0.0001127
Mean motion
15.31713227 rev/d
Perigee alt
469.9 km
Apogee alt
471.5 km
Semi-major
6,848.8 km
B*
3.2865e-4
RAAN
79.5440°
Arg perigee
98.2001°
Mean anomaly
261.9128°
Rev number
28,013

§ Raw data

STARLINK-25581 48282U 21036G   26145.20897197  .00009851  00000+0  32865-3 0  99962 48282  53.1600  79.5440 0001127  98.2001 261.9128 15.31713227280136

JSON: /api/v1/satellites/48282 · /tle

For live sub-satellite position, see the globe view (requires WebGL).

§ Visibility from observer

Set your observer location to see the next 7 days of passes ≥ 10°. The values pass through the URL so the page stays shareable.

No JS? Fill the form by hand. The geolocation button needs JavaScript.